Probability
0 0 0 0 0 0 2 12 35 63 77 69 41 12 1 0 0 0 0 0 0 0 0 0 0 0 0 0 0 0 0 0 0 0 0 0 0 0 0 0 0 0 0
0 0 0 0 0 0 5 24 52 68 65 47 23 6 0 0 0 0 0 0 0 0 0 0 0 0 0 0 0 0 0 0 0 0 0 0 0 0 0 0 0 0 0
0 0 0 0 0 0 11 40 64 59 38 19 6 1 0 0 0 0 0 0 0 0 0 0 0 0 0 0 0 0 0 0 0 0 0 0 0 0 0 0 0 0 0
0 0 0 0 0 1 15 43 53 33 13 4 1 0 0 0 0 0 0 0 0 0 0 0 0 0 0 0 0 0 0 0 0 0 0 0 0 0 0 0 0 0 0
0 0 0 0 0 1 12 29 27 11 2 0 0 0 0 0 0 0 0 0 0 0 0 0 0 0 0 0 0 0 0 0 0 0 0 0 0 0 0 0 0 0 0
0 0 0 0 0 0 6 12 9 2 0 0 0 0 0 0 0 0 0 0 0 0 0 0 0 0 0 0 0 0 0 0 0 0 0 0 0 0 0 0 0 0 0
0 0 0 0 0 0 2 3 2 0 0 0 0 0 0 0 0 0 0 0 0 0 0 0 0 0 0 0 0 0 0 0 0 0 0 0 0 0 0 0 0 0 0
0 0 0 0 0 0 0 0 0 0 0 0 0 0 0 0 0 0 0 0 0 0 0 0 0 0 0 0 0 0 0 0 0 0 0 0 0 0 0 0 0 0 0
0 0 0 0 0 0 0 0 0 0 0 0 0 0 0 0 0 0 0 0 0 0 0 0 0 0 0 0 0 0 0 0 0 0 0 0 0 0 0 0 0 0 0
0 0 0 0 0 0 0 0 0 0 0 0 0 0 0 0 0 0 0 0 0 0 0 0 0 0 0 0 0 0 0 0 0 0 0 0 0 0 0 0 0 0 0
0 0 0 0 0 0 0 0 0 0 0 0 0 0 0 0 0 0 0 0 0 0 0 0 0 0 0 0 0 0 0 0 0 0 0 0 0 0 0 0 0 0 0
0 0 0 0 0 0 0 0 0 0 0 0 0 0 0 0 0 0 0 0 0 0 0 0 0 0 0 0 0 0 0 0 0 0 0 0 0 0 0 0 0 0 0
0 0 0 0 0 0 0 0 0 0 0 0 0 0 0 0 0 0 0 0 0 0 0 0 0 0 0 0 0 0 0 0 0 0 0 0 0 0 0 0 0 0 0
0 0 0 0 0 0 0 0 0 0 0 0 0 0 0 0 0 0 0 0 0 0 0 0 0 0 0 0 0 0 0 0 0 0 0 0 0 0 0 0 0 0 0
0 0 0 0 0 0 0 0 0 0 0 0 0 0 0 0 0 0 0 0 0 0 0 0 0 0 0 0 0 0 0 0 0 0 0 0 0 0 0 0 0 0 0
0 0 0 0 0 0 0 0 0 0 0 0 0 0 0 0 0 0 0 0 0 0 0 0 0 0 0 0 0 0 0 0 0 0 0 0 0 0 0 0 0 0 0
0 0 0 0 0 0 0 0 0 0 0 0 0 0 0 0 0 0 0 0 0 0 0 0 0 0 0 0 0 0 0 0 0 0 0 0 0 0 0 0 0 0 0
0 0 0 0 0 0 0 0 0 0 0 0 0 0 0 0 0 0 0 0 0 0 0 0 0 0 0 0 0 0 0 0 0 0 0 0 0 0 0 0 0 0 0
0 0 0 0 0 0 0 0 0 0 0 0 0 0 0 0 0 0 0 0 0 0 0 0 0 0 0 0 0 0 0 0 0 0 0 0 0 0 0 0 0 0 0
0 0 0 0 0 0 0 0 0 0 0 0 0 0 0 0 0 0 0 0 0 0 0 0 0 0 0 0 0 0 0 0 0 0 0 0 0 0 0 0 0 0 0
0 0 0 0 0 0 0 0 0 0 0 0 0 0 0 0 0 0 0 0 0 0 0 0 0 0 0 0 0 0 0 0 0 0 0 0 0 0 0 0 0 0 0
0 0 0 0 0 0 0 0 0 0 0 0 0 0 0 0 0 0 0 0 0 0 0 0 0 0 0 0 0 0 0 0 0 0 0 0 0 0 0 0 0 0 0
0 0 0 0 0 0 0 0 0 0 0 0 0 0 0 0 0 0 0 0 0 0 0 0 0 0 0 0 0 0 0 0 0 0 0 0 0 0 0 0 0 0 0
0 0 0 0 0 0 0 0 0 0 0 0 0 0 0 0 0 0 0 0 0 0 0 0 0 0 0 0 0 0 0 0 0 0 0 0 0 0 0 0 0 0 0
0 0 0 0 0 0 0 0 0 0 0 0 0 0 0 0 0 0 0 0 0 0 0 0 0 0 0 0 0 0 0 0 0 0 0 0 0 0 0 0 0 0 0
0 0 0 0 0 0 0 0 0 0 0 0 0 0 0 0 0 0 0 0 0 0 0 0 0 0 0 0 0 0 0 0 0 0 0 0 0 0 0 0 0 0 0
Wind_Speed
17 16 15 13 11 10 9 10 12 14 13 11 11 10 9 8 8 7 9 10 11 10 9 7 7 5 5 5 5 4 5 5 6 5 2 1 2 3 2 2 3 2 4
22 20 18 15 13 12 10 11 14 15 16 13 11 8 9 8 8 8 8 8 9 9 8 9 7 6 6 6 5 4 3 4 5 5 4 3 2 2 2 3 3 4 5
24 23 22 20 16 13 12 11 15 16 16 15 10 10 8 8 7 8 6 6 7 8 9 10 8 7 6 5 5 4 4 3 3 4 4 4 3 5 4 4 5 6 6
21 21 21 21 18 16 13 14 15 17 17 16 15 18 12 11 10 8 8 8 8 9 10 10 9 7 6 6 5 4 3 3 2 2 2 3 3 5 5 4 5 7 8
16 17 18 19 17 15 14 15 16 17 18 17 17 16 13 11 11 11 12 10 9 9 10 9 8 7 6 6 5 4 3 2 2 2 2 3 3 5 5 8 8 7 7
13 14 15 15 14 13 14 16 18 18 18 18 17 16 18 17 17 15 13 10 8 8 10 9 8 7 6 6 5 4 3 1 1 2 3 3 4 5 6 8 10 10 8
11 11 12 13 13 16 17 18 20 19 19 18 17 16 18 20 21 18 15 12 10 8 10 8 7 6 6 6 5 3 2 2 3 4 3 4 5 6 7 9 11 12 11
11 11 10 11 14 17 19 20 20 20 19 18 16 15 16 13 13 15 13 12 9 9 10 9 7 7 7 5 4 2 2 3 4 4 5 5 5 5 7 8 10 12 10
12 11 9 10 13 16 19 20 20 19 19 17 16 15 13 13 14 13 12 10 10 10 11 9 8 7 6 5 3 2 2 3 4 5 6 5 5 6 7 7 8 10 13
13 12 9 9 11 14 16 17 18 18 17 16 15 12 12 13 14 13 13 12 12 11 11 9 8 6 5 4 3 2 2 4 4 4 6 7 6 7 7 8 8 9 12
14 13 8 7 10 13 15 16 16 17 16 16 15 14 13 14 14 13 13 12 12 11 10 8 7 6 4 3 2 3 3 5 5 5 6 8 9 8 7 8 8 9 10
12 11 6 7 11 14 15 15 15 15 15 15 15 14 14 15 14 13 13 12 11 10 9 8 6 5 3 2 3 3 4 5 6 6 7 8 7 9 8 8 9 9 11
11 7 3 8 11 13 14 15 14 14 14 15 16 16 15 15 15 14 13 11 11 9 8 6 5 4 2 2 3 5 6 6 7 7 8 9 9 10 8 10 10 10 10
9 4 5 9 11 12 13 14 14 14 14 14 16 16 16 15 15 14 13 11 10 8 7 5 4 2 0 2 4 5 7 8 8 8 9 9 9 10 11 10 12 12 13
6 5 8 9 11 12 12 13 14 13 13 15 16 16 15 15 14 13 12 10 8 7 6 4 3 0 2 3 5 7 8 8 9 9 9 10 11 14 13 12 13 14 13
5 8 10 11 12 12 13 14 14 13 13 16 16 16 15 15 14 13 11 10 8 6 5 3 1 1 2 5 8 9 9 9 9 10 10 10 11 13 17 19 20 20 17
7 10 11 11 12 12 14 14 14 14 15 16 16 15 15 14 13 12 10 9 7 5 4 2 1 3 3 6 9 10 10 9 9 10 10 9 9 14 13 16 20 19 21
10 11 12 12 12 13 14 15 15 16 16 16 15 14 14 13 12 10 9 7 5 4 2 1 2 3 4 7 10 12 10 9 9 10 11 12 12 12 15 16 16 15 15
11 12 13 14 14 14 15 17 16 16 15 15 14 13 13 12 11 9 8 6 4 3 1 1 3 4 5 7 11 13 9 8 10 10 11 12 13 17 21 18 16 16 15
12 13 14 14 14 14 15 17 16 15 14 14 13 12 11 11 10 8 7 4 3 1 0 2 3 5 6 8 11 13 8 9 9 10 11 14 15 19 22 17 16 16 15
14 14 14 13 13 14 15 16 15 14 13 13 12 11 10 10 9 7 5 4 2 0 2 3 4 4 6 8 11 13 9 9 10 10 9 9 17 21 23 20 15 16 18
14 14 14 14 12 13 15 16 15 14 13 13 12 11 10 8 6 6 5 3 1 2 3 4 5 4 5 6 10 14 13 14 12 11 10 11 20 22 22 16 16 20 19
13 13 15 15 13 12 13 17 14 13 13 13 12 10 9 7 5 4 3 2 1 2 4 4 5 6 5 7 11 13 16 16 11 10 16 20 20 19 14 14 18 16 10
13 13 15 16 14 13 13 15 13 12 12 12 10 8 7 6 5 3 2 2 2 3 4 5 6 6 7 7 7 9 10 12 11 11 14 18 16 13 14 13 11 8 9
12 12 13 15 14 13 13 12 11 12 12 10 8 7 5 5 4 3 2 2 2 4 6 6 6 7 8 9 16 13 10 10 11 13 10 8 8 8 8 9 9 9 9
12 13 15 15 14 13 12 10 9 10 10 8 7 5 4 3 2 2 1 0 3 5 7 8 9 9 11 16 17 17 17 18 18 13 8 8 8 9 9 10 11 10 10
Wind_Direction
254 254 256 255 252 242 227 211 191 177 175 177 170 163 155 143 129 123 129 132 131 132 132 129 126 119 106 98 82 71 50 26 350 331 326 200 203 234 216 296 290 315 326
254 249 248 247 244 237 221 203 184 176 178 179 173 163 139 125 116 114 111 121 129 135 134 131 125 120 115 104 87 66 50 41 15 351 330 321 218 180 260 296 285 303 310
249 245 240 238 232 229 213 196 181 177 179 174 154 137 123 122 119 117 112 121 131 135 132 127 125 123 117 106 90 69 48 36 37 19 353 329 320 318 284 295 299 306 315
245 242 239 233 222 217 204 191 177 177 177 168 165 163 159 154 151 140 131 133 134 133 128 127 126 123 117 114 101 81 65 26 15 25 360 317 308 294 301 280 281 297 302
251 246 241 236 223 206 189 181 174 177 174 172 172 169 155 140 132 130 133 134 134 132 132 131 127 124 118 114 114 109 88 48 358 335 315 291 276 266 283 296 305 300 293
270 260 250 241 223 193 181 175 175 176 173 172 171 166 148 142 142 144 144 144 141 137 134 131 127 128 126 127 130 129 125 126 263 274 280 294 293 296 289 291 301 304 306
289 277 258 230 205 186 181 178 177 173 172 171 169 158 153 152 153 154 155 152 149 145 141 137 137 133 133 137 143 146 161 222 259 274 287 283 279 286 285 287 297 300 300
306 288 267 230 201 187 182 180 177 172 170 167 160 153 153 152 152 155 154 153 146 140 139 138 140 141 144 148 151 162 202 244 262 277 284 285 282 283 283 289 298 300 294
321 305 274 231 202 188 184 181 175 169 166 160 150 148 150 148 146 147 145 136 131 133 137 141 146 148 151 152 164 206 226 254 275 289 290 288 288 286 285 284 282 288 296
323 320 286 228 198 186 182 178 170 162 156 148 142 139 143 142 141 141 138 133 132 133 139 146 150 153 156 165 190 231 254 279 294 302 300 301 293 291 285 280 280 278 284
322 324 296 223 186 175 171 166 160 151 146 141 133 133 136 136 137 133 130 130 132 137 142 147 152 158 165 180 219 257 280 295 303 301 302 300 300 294 291 289 285 283 285
320 322 291 192 170 168 163 154 150 145 140 136 132 133 133 132 129 126 126 129 131 134 138 144 151 154 166 211 264 287 294 298 299 300 299 297 298 296 294 292 291 289 288
320 318 229 174 165 162 152 144 139 135 134 134 132 132 131 129 126 125 125 126 127 131 138 146 148 149 166 260 291 297 296 292 290 293 297 301 301 299 299 297 294 292 291
309 272 188 164 154 151 141 134 129 131 134 133 130 128 128 125 124 123 123 124 128 134 139 138 132 134 245 294 299 298 295 293 288 286 288 294 295 299 301 298 296 296 296
276 199 169 149 141 137 132 128 127 131 132 127 122 121 120 119 120 120 121 122 126 130 133 133 131 122 308 327 321 310 301 295 291 286 287 289 294 296 296 297 299 300 296
218 172 155 143 141 137 132 127 125 128 125 119 117 118 119 118 119 121 123 124 128 131 131 127 102 334 343 335 319 317 305 297 293 295 296 297 293 293 297 298 298 295 292
171 156 148 142 137 134 132 127 125 123 117 115 117 119 119 119 121 123 124 127 130 134 136 118 349 329 351 332 325 319 306 299 298 297 297 297 297 303 300 298 296 294 291
149 141 134 127 124 124 122 120 118 116 116 116 117 119 121 121 124 124 123 124 129 133 123 43 344 328 339 333 323 320 307 300 294 294 296 299 303 304 304 302 300 297 294
129 124 123 122 121 122 122 117 114 115 116 118 119 122 124 125 124 122 122 125 132 126 97 340 334 326 329 334 326 328 312 301 301 301 300 302 301 304 307 307 303 300 299
112 115 117 117 117 119 120 115 115 115 115 117 119 120 121 121 120 119 119 120 120 105 353 323 328 325 327 333 332 328 313 310 309 305 303 302 304 308 311 311 308 306 307
110 115 114 112 114 119 116 111 110 110 113 113 111 109 108 109 111 114 116 122 118 71 324 319 320 318 327 329 329 327 320 316 311 307 307 306 310 311 313 313 306 304 306
107 111 109 107 110 115 114 108 107 111 112 109 106 105 105 105 114 120 120 112 65 330 330 326 327 330 327 322 325 324 319 316 310 307 307 309 312 314 314 310 305 306 307
106 109 111 108 104 107 111 109 113 115 113 109 107 108 109 111 116 113 111 96 21 347 335 329 325 327 327 324 323 321 319 317 312 304 306 308 311 314 310 304 307 309 304
109 113 111 106 101 100 102 109 115 116 114 114 116 120 120 116 110 100 78 40 6 343 330 325 322 320 318 320 324 322 318 316 314 311 308 308 307 305 301 304 307 307 304
108 107 106 104 104 105 103 107 115 120 119 119 120 118 112 112 105 89 56 6 3 337 326 322 317 314 313 318 321 319 316 318 315 315 305 304 310 313 313 313 313 314 313
108 106 104 106 108 107 105 108 118 124 123 121 119 114 112 105 86 57 44 167 314 319 314 313 312 309 307 314 318 319 319 319 319 315 305 310 314 314 316 316 315 314 312